STARLINK-5882 (55936 NORAD) Tracking and Keplerian Element Data

This shows tracking and keplerian element data for the satellite.

Feedback or suggestion? Click here.




ElementValue
Catalog55936
NameSTARLINK-5882
Epoch Orbit841
Epoch Day127.00001157
Epoch Year2023
RAAN39.8215
Inclination70.0024
Eccentricity0.0003549
Argument of Perigee267.3816
Mean Anonmoly133.7077
Mean Motion15.69894026
Decay Rate0.00027131
L11 55936U 23037Y 23127.00001157 .00027131 00000+0 22695-3 0 9992
L22 55936 70.0024 39.8215 0003549 267.3816 133.7077 15.69894026 8416



Live tracking and technical data element details for STARLINK-5882 (NORAD 55936). STARLINK-5882 can be tracked NOW for your location showing map with azimuth and elevation plus other details from your city location.







IsCatalogInMostPopularTable: catalog: 55936, numindb: 8
Update: records affected: 1



GetName: 55936 STARLINK-5882

Hit Count: updated at: Tue, 06 Jun 2023 03:36:42 GMT